Meteo orario Kozin

Oggi, 6 Marzo, Sabato

Tempo Temperatura Precipitazioni Vento Pressione Umidità
00:00 0°C° 0 mm 1 m/s 759 mm Hg 72%
01:00 0°C° 0 mm 1 m/s 759 mm Hg 72%
02:00 0°C° 0 mm 1 m/s 759 mm Hg 72%
03:00 -2°C° 0 mm 2 m/s 759 mm Hg 72%
04:00 -2°C° 0 mm 2 m/s 759 mm Hg 71%
05:00 -2°C° 0 mm 2 m/s 759 mm Hg 72%
06:00 -2°C° 0 mm 3 m/s 759 mm Hg 72%
07:00 -2°C° 0 mm 3 m/s 759 mm Hg 72%
08:00 -2°C° 0 mm 4 m/s 759 mm Hg 66%
09:00 -1°C° 0 mm 4 m/s 758 mm Hg 61%
10:00 0°C° 0 mm 5 m/s 758 mm Hg 55%
11:00 +1°C° 0 mm 5 m/s 758 mm Hg 53%
12:00 +1°C° 0 mm 6 m/s 758 mm Hg 51%
13:00 +2°C° 0 mm 7 m/s 757 mm Hg 50%
14:00 0°C° 0 mm 7 m/s 757 mm Hg 60%
15:00 0°C° 0 mm 7 m/s 756 mm Hg 71%
16:00 -1°C° 0 mm 7 m/s 756 mm Hg 82%
17:00 -1°C° 0 mm 7 m/s 755 mm Hg 81%
18:00 -1°C° 0 mm 7 m/s 755 mm Hg 81%
19:00 -1°C° 0 mm 8 m/s 754 mm Hg 80%
20:00 -1°C° 0 mm 8 m/s 754 mm Hg 80%
21:00 -1°C° 0 mm 8 m/s 753 mm Hg 80%
22:00 -1°C° 0 mm 9 m/s 753 mm Hg 79%
23:00 -1°C° 0 mm 9 m/s 753 mm Hg 82%

Domani, 7 Marzo, Domenica

Tempo Temperatura Precipitazioni Vento Pressione Umidità
00:00 -1°C° 0 mm 9 m/s 752 mm Hg 84%
01:00 -2°C° 0 mm 10 m/s 752 mm Hg 86%
02:00 -2°C° 0 mm 10 m/s 751 mm Hg 86%
03:00 -2°C° 0 mm 10 m/s 751 mm Hg 86%
04:00 -2°C° 0 mm 10 m/s 751 mm Hg 86%
05:00 -1°C° 0.1 mm 9 m/s 750 mm Hg 89%
06:00 -1°C° 0.1 mm 9 m/s 750 mm Hg 91%
07:00 -1°C° 0.1 mm 8 m/s 750 mm Hg 94%
08:00 -1°C° 0.4 mm 8 m/s 750 mm Hg 94%
09:00 -1°C° 0.4 mm 7 m/s 750 mm Hg 95%
10:00 -2°C° 0.4 mm 7 m/s 750 mm Hg 95%
11:00 -1°C° 0.3 mm 7 m/s 750 mm Hg 95%
12:00 -1°C° 0.3 mm 8 m/s 749 mm Hg 94%
13:00 -1°C° 0.3 mm 8 m/s 749 mm Hg 94%
14:00 -1°C° 0.5 mm 7 m/s 749 mm Hg 94%
15:00 -2°C° 0.5 mm 6 m/s 749 mm Hg 94%
16:00 -1°C° 0.5 mm 5 m/s 749 mm Hg 95%
17:00 -2°C° 0.2 mm 4 m/s 749 mm Hg 94%
18:00 -1°C° 0.2 mm 3 m/s 749 mm Hg 93%
19:00 -2°C° 0.2 mm 2 m/s 749 mm Hg 93%
20:00 -2°C° 0 mm 2 m/s 749 mm Hg 90%
21:00 -2°C° 0 mm 2 m/s 749 mm Hg 88%
22:00 -2°C° 0 mm 2 m/s 750 mm Hg 85%
23:00 -2°C° 0 mm 2 m/s 750 mm Hg 81%

Dopodomani, 8 Marzo, Lunedi

Tempo Temperatura Precipitazioni Vento Pressione Umidità
00:00 -3°C° 0 mm 2 m/s 750 mm Hg 78%
01:00 -3°C° 0 mm 2 m/s 751 mm Hg 74%
02:00 -3°C° 0 mm 2 m/s 751 mm Hg 74%
03:00 -3°C° 0 mm 2 m/s 751 mm Hg 74%
04:00 -4°C° 0 mm 3 m/s 751 mm Hg 74%
05:00 -2°C° 0 mm 3 m/s 752 mm Hg 75%
06:00 -2°C° 0 mm 3 m/s 752 mm Hg 75%
07:00 -2°C° 0 mm 3 m/s 753 mm Hg 76%
08:00 -2°C° 0.1 mm 3 m/s 753 mm Hg 72%
09:00 -2°C° 0.1 mm 4 m/s 753 mm Hg 68%
10:00 -2°C° 0.1 mm 4 m/s 754 mm Hg 65%
11:00 -1°C° 0.1 mm 4 m/s 754 mm Hg 63%
12:00 -1°C° 0.1 mm 4 m/s 754 mm Hg 62%
13:00 -1°C° 0.1 mm 4 m/s 755 mm Hg 61%
14:00 -1°C° 0.1 mm 4 m/s 755 mm Hg 62%
15:00 -1°C° 0.1 mm 4 m/s 755 mm Hg 63%
16:00 -2°C° 0.1 mm 4 m/s 755 mm Hg 64%
17:00 -2°C° 0 mm 3 m/s 755 mm Hg 68%
18:00 -2°C° 0 mm 2 m/s 755 mm Hg 73%
19:00 -3°C° 0 mm 2 m/s 756 mm Hg 77%
20:00 -1°C° 0 mm 1 m/s 756 mm Hg 77%
21:00 -1°C° 0 mm 1 m/s 756 mm Hg 77%
22:00 -1°C° 0 mm 1 m/s 756 mm Hg 77%
23:00 -1°C° 0 mm 1 m/s 756 mm Hg 76%

9 Marzo, Martedi

Tempo Temperatura Precipitazioni Vento Pressione Umidità
00:00 -1°C° 0 mm 1 m/s 756 mm Hg 75%
01:00 -2°C° 0 mm 0 m/s 756 mm Hg 74%
02:00 -2°C° 0 mm 0 m/s 756 mm Hg 73%
03:00 -2°C° 0 mm 0 m/s 756 mm Hg 72%
04:00 -2°C° 0 mm 0 m/s 756 mm Hg 72%
05:00 -2°C° 0 mm 0 m/s 756 mm Hg 71%
06:00 -1°C° 0 mm 1 m/s 756 mm Hg 70%
07:00 -1°C° 0 mm 1 m/s 756 mm Hg 70%
08:00 0°C° 0 mm 1 m/s 756 mm Hg 65%
09:00 0°C° 0 mm 1 m/s 756 mm Hg 61%
10:00 -1°C° 0 mm 2 m/s 756 mm Hg 57%
11:00 -1°C° 0 mm 2 m/s 756 mm Hg 54%
12:00 +1°C° 0 mm 2 m/s 756 mm Hg 52%
13:00 +1°C° 0 mm 2 m/s 756 mm Hg 49%
14:00 +1°C° 0 mm 2 m/s 755 mm Hg 51%
15:00 +1°C° 0 mm 2 m/s 755 mm Hg 53%
16:00 +1°C° 0 mm 2 m/s 754 mm Hg 55%
17:00 -1°C° 0 mm 2 m/s 754 mm Hg 60%
18:00 -2°C° 0 mm 2 m/s 754 mm Hg 66%
19:00 -3°C° 0 mm 2 m/s 754 mm Hg 71%
20:00 -3°C° 0 mm 2 m/s 754 mm Hg 72%
21:00 -3°C° 0 mm 2 m/s 754 mm Hg 72%
22:00 -4°C° 0 mm 3 m/s 754 mm Hg 73%
23:00 -4°C° 0 mm 3 m/s 754 mm Hg 73%

10 Marzo, Mercoledi

Tempo Temperatura Precipitazioni Vento Pressione Umidità
00:00 -4°C° 0 mm 3 m/s 754 mm Hg 73%
01:00 -4°C° 0 mm 3 m/s 754 mm Hg 73%
02:00 -3°C° 0 mm 2 m/s 754 mm Hg 74%
03:00 -3°C° 0 mm 2 m/s 754 mm Hg 74%
04:00 -3°C° 0 mm 2 m/s 753 mm Hg 74%
05:00 -3°C° 0 mm 2 m/s 753 mm Hg 73%
06:00 -3°C° 0 mm 2 m/s 753 mm Hg 73%
07:00 -3°C° 0 mm 2 m/s 753 mm Hg 72%
08:00 -1°C° 0 mm 3 m/s 753 mm Hg 67%
09:00 0°C° 0 mm 3 m/s 753 mm Hg 61%
10:00 +1°C° 0 mm 3 m/s 753 mm Hg 56%
11:00 +1°C° 0 mm 4 m/s 753 mm Hg 57%
12:00 +3°C° 0 mm 4 m/s 753 mm Hg 57%
13:00 +3°C° 0 mm 4 m/s 752 mm Hg 58%
14:00 +3°C° 0 mm 4 m/s 752 mm Hg 62%
15:00 +3°C° 0 mm 4 m/s 751 mm Hg 67%
16:00 +3°C° 0 mm 4 m/s 751 mm Hg 71%
17:00 +1°C° 0 mm 4 m/s 750 mm Hg 77%
18:00 0°C° 0 mm 4 m/s 750 mm Hg 83%
19:00 -1°C° 0 mm 4 m/s 749 mm Hg 89%
20:00 0°C° 0 mm 5 m/s 749 mm Hg 89%
21:00 0°C° 0 mm 5 m/s 748 mm Hg 90%
22:00 0°C° 0 mm 5 m/s 748 mm Hg 91%
23:00 -1°C° 0 mm 6 m/s 747 mm Hg 91%

11 Marzo, Giovedi

Tempo Temperatura Precipitazioni Vento Pressione Umidità
00:00 -1°C° 0 mm 6 m/s 746 mm Hg 90%
01:00 -1°C° 0 mm 6 m/s 745 mm Hg 89%
02:00 -1°C° 0.1 mm 6 m/s 744 mm Hg 90%
03:00 +1°C° 0.1 mm 6 m/s 743 mm Hg 92%
04:00 0°C° 0.1 mm 7 m/s 742 mm Hg 93%
05:00 0°C° 0.2 mm 7 m/s 741 mm Hg 93%
06:00 0°C° 0.2 mm 7 m/s 740 mm Hg 93%
07:00 0°C° 0.2 mm 7 m/s 739 mm Hg 93%
08:00 +2°C° 0.5 mm 7 m/s 738 mm Hg 93%
09:00 +3°C° 0.5 mm 7 m/s 737 mm Hg 93%
10:00 +2°C° 0.5 mm 8 m/s 737 mm Hg 92%
11:00 +4°C° 0.1 mm 8 m/s 736 mm Hg 90%
12:00 +5°C° 0.1 mm 8 m/s 735 mm Hg 89%
13:00 +6°C° 0.1 mm 8 m/s 734 mm Hg 87%
14:00 +6°C° 0.2 mm 9 m/s 734 mm Hg 84%
15:00 +7°C° 0.2 mm 9 m/s 733 mm Hg 81%
16:00 +7°C° 0.2 mm 9 m/s 733 mm Hg 78%
17:00 +7°C° 0.3 mm 9 m/s 732 mm Hg 75%
18:00 +6°C° 0.3 mm 9 m/s 732 mm Hg 72%
19:00 +5°C° 0.3 mm 9 m/s 732 mm Hg 69%
20:00 +5°C° 0 mm 10 m/s 733 mm Hg 70%
21:00 +3°C° 0 mm 10 m/s 733 mm Hg 71%
22:00 +3°C° 0 mm 11 m/s 734 mm Hg 72%
23:00 +2°C° 0 mm 10 m/s 734 mm Hg 72%
Mostrare altro